Location: Baumgartsau
(48.4586°N, 14.0864°E)
Time: 17:08:12
(UTC+00:00)

BREEZE M DEB (TANK) - Pass Details

Date: 16 May 2021
Orbit: 296 x 11842 km, 49.5° (Epoch: 19 June)

Event Time Altitude Azimuth Distance (km) Brightness Sun altitude
Rises 21:27:45 0° 299° (WNW) 6,210 8.5 -19.2°
Reaches altitude 10° 21:30:42 10° 294° (WNW) 5,908 8.1 -19.4°
Maximum altitude 21:52:29 49° 229° (SW) 7,572 7.8 -20.6°
Enters shadow 22:40:30 23° 181° (S) 14,187 8.7 -22.1°
